Wind_Speed
24 24 24 23 22 20 18 18 18 20 22 23 24 25 25 24 21 22 25 25 25 26 29 31 31 30 27 25 24 21 19 18 17 17 17 16 16 16 16 18 19 19 18
24 23 22 21 21 21 20 19 20 21 22 23 24 25 26 25 24 25 25 25 25 25 26 29 31 32 30 27 27 26 25 22 19 19 20 19 19 18 17 17 16 17 17
25 24 23 23 22 21 20 20 20 21 21 22 23 24 24 25 25 24 24 25 25 25 25 26 28 28 29 30 30 30 30 27 23 22 22 22 22 20 18 18 18 18 16
24 23 22 22 22 21 21 21 20 20 20 20 19 19 20 21 23 23 24 25 26 25 25 25 27 28 30 31 32 33 34 32 29 27 26 25 24 23 21 20 20 20 19
19 18 18 19 21 22 22 21 20 19 18 17 16 16 18 20 21 21 21 22 23 24 25 26 27 28 31 33 34 35 36 36 35 34 32 30 29 26 24 24 23 23 23
18 16 15 16 18 19 19 19 18 18 17 16 16 16 17 17 17 18 19 19 19 21 24 26 27 28 30 32 34 35 36 37 37 38 38 36 33 30 27 26 25 26 27
21 18 16 15 16 17 17 17 17 17 17 18 17 16 15 14 13 14 16 18 20 20 23 26 27 28 28 29 30 32 34 35 35 36 38 39 37 34 30 27 26 26 27
22 20 19 18 17 17 17 17 17 18 19 19 18 17 16 15 13 13 14 16 18 21 23 25 27 28 27 28 27 28 30 32 34 35 36 38 39 38 34 30 28 26 25
21 20 19 19 19 19 20 21 20 20 20 20 19 19 18 18 17 15 14 15 15 18 21 24 26 28 28 29 27 26 27 29 32 34 34 35 39 40 37 34 31 28 26
19 20 20 20 20 21 21 22 22 22 22 22 23 22 20 20 20 20 17 15 16 18 19 21 24 27 28 28 28 26 26 27 29 32 33 34 37 40 39 36 32 31 29
20 20 21 22 23 23 23 23 24 24 23 24 25 25 23 21 20 21 21 19 16 18 20 21 23 26 27 27 27 28 26 25 27 30 32 33 37 39 40 38 35 34 30
25 23 22 23 24 26 27 27 27 27 26 25 26 25 24 23 22 21 22 21 19 18 19 22 24 26 26 25 25 26 26 25 25 26 27 29 33 37 40 39 37 34 30
31 30 28 26 26 27 30 30 30 30 30 28 28 27 27 25 24 23 22 21 20 20 19 21 23 26 26 24 24 25 25 24 23 24 24 25 27 30 34 36 35 32 28
39 37 36 33 32 31 32 33 33 34 33 31 30 29 29 28 27 25 23 21 19 20 21 22 22 25 25 23 23 24 22 21 21 22 23 22 22 23 26 29 29 28 28
49 47 45 42 40 38 37 37 36 36 34 33 32 32 31 31 30 29 27 24 21 20 22 23 22 24 25 23 23 24 23 21 19 18 20 20 20 21 22 25 26 28 29
54 54 54 52 49 46 45 44 42 40 38 36 35 34 33 32 33 32 31 29 25 22 23 25 24 24 25 25 25 25 25 25 23 22 21 21 22 23 25 27 28 29 30
57 57 57 56 55 53 53 52 49 47 45 42 40 38 36 35 34 33 32 31 29 25 23 24 24 24 25 26 28 28 27 27 27 27 26 25 25 27 29 30 31 32 31
61 60 61 61 60 58 56 56 55 53 51 49 46 43 41 38 36 34 33 31 30 26 22 23 23 23 24 26 27 29 30 30 30 30 30 29 29 28 29 31 32 32 31
65 66 65 65 64 63 60 59 58 56 55 53 51 48 44 40 37 35 33 31 29 26 23 23 22 21 22 24 25 27 30 30 30 29 29 29 28 28 28 29 30 30 28
58 65 69 70 70 68 65 63 60 57 56 53 51 49 45 41 38 36 33 31 29 27 24 24 22 19 18 21 22 24 26 27 26 25 26 25 25 26 26 27 26 25 23
39 46 54 62 68 71 71 70 66 62 57 54 51 48 46 43 41 39 36 32 29 28 25 24 21 17 15 17 19 20 22 23 23 22 22 22 22 23 23 23 23 23 22
35 36 39 44 51 59 67 72 72 67 62 57 52 49 47 45 44 42 39 35 31 28 25 23 21 17 14 14 17 19 19 20 20 21 23 23 22 22 21 23 25 26 25
36 35 34 35 38 44 53 62 69 71 67 61 55 51 48 46 45 44 42 39 33 28 25 22 20 18 15 12 13 15 17 19 21 23 24 25 24 23 22 23 24 27 26
41 38 36 34 33 35 40 47 57 66 69 66 60 54 49 45 44 44 44 41 34 29 25 22 20 18 15 13 13 14 16 17 18 21 22 24 24 24 22 21 21 24 24
44 42 40 37 34 32 33 36 41 52 60 64 62 56 51 47 44 43 44 43 37 31 25 22 19 18 15 13 14 16 16 16 15 16 17 19 22 24 25 23 22 21 20
44 42 42 40 37 34 31 30 31 38 48 56 59 56 52 49 45 43 43 43 40 32 26 22 19 17 15 14 14 16 15 14 13 13 14 17 20 24 26 25 23 19 17
Wind_Direction
284 287 281 277 274 273 273 274 274 272 271 272 272 272 273 274 273 270 268 269 270 268 257 249 247 249 252 252 253 254 255 248 242 245 251 255 258 260 261 258 253 258 267
285 282 278 275 269 266 270 275 273 269 266 266 268 270 272 272 271 266 266 267 268 268 260 251 246 247 250 249 247 251 254 254 247 245 247 250 253 255 259 257 256 256 261
283 280 275 272 268 264 268 269 265 266 266 265 267 269 271 273 273 269 266 265 263 263 260 251 244 244 247 248 246 246 249 250 248 246 247 246 247 249 250 256 260 259 259
281 279 273 270 267 262 262 260 257 261 264 266 266 265 268 272 274 273 268 264 262 261 260 255 247 244 245 248 248 247 246 245 246 247 247 244 244 244 246 250 255 258 260
286 282 274 271 265 258 255 253 253 253 256 256 256 261 268 273 276 276 273 270 267 265 264 261 258 253 249 249 250 249 246 244 245 247 247 243 241 242 243 247 250 255 259
286 281 277 271 263 258 254 249 248 250 249 247 249 258 267 273 277 281 284 284 282 273 265 261 258 255 251 250 249 247 246 246 246 247 248 244 240 240 242 244 248 253 257
278 274 269 265 262 258 251 245 248 250 248 245 248 255 263 270 282 291 292 286 281 276 269 262 258 255 252 252 251 246 245 246 248 250 248 244 240 239 240 241 246 251 254
268 266 266 261 258 253 248 245 248 250 250 246 247 252 260 270 282 294 300 293 281 272 268 265 261 257 251 250 250 247 245 245 247 250 248 243 240 239 239 240 243 247 254
260 258 258 257 253 248 244 244 246 248 250 246 246 256 263 275 282 290 299 301 293 280 271 267 264 261 255 250 248 247 248 248 248 248 247 242 239 238 240 241 243 248 254
264 258 255 252 250 248 245 245 247 249 250 254 258 261 266 269 275 284 289 295 295 289 283 274 268 264 259 254 251 251 252 254 252 247 242 239 237 239 241 241 244 248 253
268 259 252 247 246 246 245 246 248 249 252 262 268 267 268 269 270 279 288 291 290 287 287 283 276 269 263 256 252 251 252 253 248 242 238 237 237 239 240 240 242 248 252
269 266 259 251 245 245 246 247 250 252 255 264 270 271 271 274 277 279 283 287 290 287 282 281 277 271 266 260 254 250 249 248 244 238 237 238 239 241 241 241 242 245 248
265 264 261 256 253 251 250 250 252 254 258 263 268 270 270 274 279 282 281 279 283 286 285 280 273 267 263 258 254 248 245 245 243 236 230 231 234 237 238 238 239 239 242
264 261 258 255 253 254 254 253 253 254 256 260 264 266 267 269 275 279 280 277 275 280 285 284 275 264 258 253 250 245 241 241 240 234 232 236 238 237 233 232 233 236 241
264 261 257 256 252 250 251 252 253 254 255 258 260 262 264 267 271 275 276 276 276 279 285 287 280 265 256 251 248 243 238 239 239 238 240 243 243 239 234 232 235 240 245
261 260 259 257 255 250 248 250 251 253 255 257 259 260 262 266 270 272 273 273 276 279 283 289 289 272 257 249 247 245 238 236 238 239 241 245 247 244 240 240 243 246 250
256 256 256 256 255 252 249 248 249 252 254 256 258 260 261 264 267 269 270 272 275 278 281 289 292 277 258 247 244 242 238 234 235 238 240 246 251 253 252 250 250 250 251
255 253 253 254 254 253 250 249 248 249 251 254 257 258 259 261 262 263 266 269 272 274 277 286 290 279 259 246 242 239 234 233 234 237 241 245 251 254 255 255 253 252 252
254 251 250 251 252 252 251 249 248 247 248 250 252 254 255 257 258 257 260 263 265 267 271 280 285 280 262 249 242 236 232 233 233 237 240 245 249 252 256 256 254 253 251
254 251 249 249 249 250 250 248 247 245 245 246 248 248 249 250 253 252 254 258 258 260 265 273 279 278 265 250 242 235 232 234 234 236 241 243 246 250 252 251 247 243 238
261 255 251 249 248 248 248 247 246 244 242 242 243 244 245 246 247 248 250 253 254 254 258 266 272 272 264 249 238 231 230 232 234 237 238 240 244 245 243 240 237 235 235
271 265 261 257 251 247 245 245 245 243 241 239 240 242 245 246 244 244 246 249 249 250 252 259 265 265 257 245 234 229 228 229 234 239 242 240 241 240 242 240 239 235 235
272 268 266 264 259 253 247 243 242 241 240 238 237 239 242 244 243 242 242 243 244 246 248 254 261 259 250 239 228 225 229 232 235 239 240 238 239 243 245 244 243 237 234
268 263 260 261 261 256 251 246 241 238 237 236 235 234 235 239 239 239 237 237 240 242 244 249 253 253 241 225 219 224 230 234 234 236 240 244 243 245 244 243 238 228 222
265 260 254 252 252 253 253 250 246 239 234 232 230 229 229 232 234 234 232 233 236 239 242 243 243 244 238 228 224 225 224 223 225 232 238 243 245 245 240 229 219 215 216
260 257 251 246 245 245 247 248 247 243 234 226 223 222 222 224 226 229 229 230 233 236 240 239 236 238 238 231 224 218 218 222 230 234 235 237 237 232 225 217 209 209 215
Height
5853 5854 5853 5851 5849 5849 5850 5850 5850 5850 5849 5847 5846 5846 5846 5846 5847 5847 5847 5847 5847 5847 5848 5849 5851 5854 5857 5860 5862 5864 5867 5868 5870 5872 5875 5877 5879 5881 5883 5885 5885 5886 5887
5848 5847 5846 5845 5845 5845 5846 5845 5845 5844 5843 5842 5841 5841 5841 5841 5842 5842 5842 5841 5841 5841 5841 5842 5844 5847 5850 5853 5855 5858 5860 5862 5864 5866 5869 5872 5874 5877 5879 5881 5882 5883 5884
5841 5841 5840 5840 5839 5839 5840 5840 5839 5839 5838 5838 5838 5837 5836 5836 5836 5836 5836 5836 5835 5835 5835 5836 5837 5840 5842 5845 5848 5851 5853 5855 5857 5860 5863 5865 5868 5871 5874 5876 5878 5880 5880
5835 5833 5832 5832 5832 5832 5833 5833 5833 5832 5832 5832 5832 5832 5831 5831 5831 5830 5830 5829 5829 5830 5830 5830 5831 5833 5835 5837 5840 5843 5846 5848 5850 5853 5856 5859 5861 5864 5867 5870 5873 5875 5877
5827 5827 5826 5825 5825 5826 5826 5827 5827 5826 5826 5827 5827 5827 5827 5826 5825 5824 5823 5822 5822 5824 5825 5825 5825 5827 5829 5830 5832 5835 5837 5839 5842 5845 5848 5852 5855 5858 5861 5864 5867 5870 5872
5820 5819 5819 5819 5819 5820 5820 5820 5821 5821 5821 5822 5822 5823 5822 5822 5820 5819 5817 5816 5816 5817 5817 5818 5819 5820 5821 5823 5824 5826 5828 5831 5833 5836 5840 5844 5848 5852 5856 5858 5860 5863 5866
5813 5813 5813 5813 5813 5814 5814 5815 5816 5816 5817 5817 5818 5818 5817 5817 5816 5815 5813 5811 5810 5810 5810 5810 5811 5812 5814 5815 5817 5818 5820 5823 5825 5828 5832 5836 5840 5844 5849 5852 5854 5856 5860
5807 5807 5807 5807 5807 5807 5808 5809 5810 5811 5812 5813 5813 5813 5813 5812 5811 5810 5808 5806 5805 5804 5803 5803 5803 5804 5806 5808 5809 5811 5812 5815 5817 5820 5823 5827 5831 5836 5840 5845 5847 5849 5853
5801 5800 5800 5800 5800 5801 5803 5804 5804 5805 5806 5807 5808 5809 5808 5807 5806 5806 5804 5802 5800 5798 5798 5797 5796 5796 5798 5800 5802 5804 5806 5807 5809 5812 5815 5818 5823 5827 5831 5836 5840 5843 5846
5794 5793 5793 5794 5795 5796 5797 5799 5800 5800 5801 5801 5803 5803 5804 5803 5802 5800 5800 5797 5795 5793 5792 5792 5791 5790 5792 5794 5796 5798 5800 5801 5802 5805 5808 5811 5815 5819 5823 5828 5832 5836 5838
5788 5787 5787 5787 5788 5790 5791 5792 5794 5795 5795 5796 5797 5797 5797 5797 5797 5796 5793 5792 5790 5788 5786 5785 5784 5784 5785 5787 5789 5791 5793 5794 5795 5798 5802 5805 5808 5812 5816 5819 5824 5828 5831
5781 5780 5780 5780 5780 5782 5783 5785 5786 5788 5788 5789 5790 5791 5791 5790 5790 5790 5789 5786 5785 5783 5781 5780 5778 5777 5778 5780 5782 5784 5786 5787 5789 5791 5795 5798 5802 5805 5809 5812 5816 5821 5823
5771 5772 5771 5771 5772 5773 5774 5776 5777 5779 5780 5781 5782 5783 5783 5783 5783 5783 5783 5782 5780 5777 5776 5775 5774 5772 5772 5773 5775 5777 5779 5781 5783 5785 5788 5791 5794 5797 5801 5805 5809 5812 5815
5759 5759 5760 5761 5762 5763 5765 5767 5768 5770 5771 5772 5773 5774 5775 5776 5776 5776 5776 5776 5775 5772 5770 5769 5768 5766 5765 5767 5769 5770 5773 5775 5777 5780 5782 5784 5786 5789 5793 5797 5801 5805 5809
5744 5745 5746 5748 5750 5752 5754 5756 5758 5759 5761 5762 5763 5764 5766 5767 5768 5768 5769 5770 5770 5768 5764 5762 5761 5760 5759 5761 5763 5765 5767 5770 5772 5774 5777 5779 5782 5785 5788 5792 5796 5799 5802
5725 5727 5729 5732 5735 5738 5740 5743 5746 5748 5750 5751 5752 5754 5756 5757 5758 5760 5761 5762 5763 5763 5760 5756 5755 5754 5754 5754 5756 5759 5761 5764 5767 5769 5771 5774 5777 5780 5783 5786 5789 5792 5795
5706 5708 5710 5713 5716 5721 5725 5729 5732 5735 5737 5740 5742 5744 5746 5748 5749 5750 5752 5753 5755 5756 5755 5751 5748 5747 5747 5747 5749 5751 5754 5757 5760 5763 5766 5769 5772 5775 5777 5780 5783 5785 5788
5684 5686 5689 5693 5696 5701 5706 5712 5717 5721 5724 5727 5730 5733 5736 5739 5740 5741 5743 5744 5746 5748 5748 5745 5742 5740 5740 5741 5742 5744 5748 5750 5753 5757 5760 5763 5766 5768 5771 5773 5776 5778 5780
5659 5663 5667 5671 5676 5681 5686 5692 5698 5704 5708 5712 5716 5721 5725 5728 5730 5732 5734 5736 5738 5740 5741 5740 5737 5734 5733 5734 5736 5738 5741 5744 5747 5751 5754 5757 5760 5762 5764 5766 5768 5771 5773
5634 5638 5643 5648 5654 5660 5666 5672 5678 5685 5691 5697 5702 5707 5712 5716 5719 5722 5725 5727 5730 5732 5734 5733 5731 5729 5727 5728 5729 5731 5734 5738 5742 5745 5748 5751 5753 5756 5758 5759 5762 5764 5766
5613 5615 5619 5623 5629 5637 5644 5650 5657 5665 5673 5680 5687 5693 5699 5704 5708 5712 5716 5719 5722 5725 5726 5726 5726 5724 5723 5722 5723 5726 5728 5732 5736 5739 5741 5744 5747 5749 5751 5753 5756 5758 5761
5599 5600 5601 5604 5607 5613 5620 5627 5635 5644 5654 5663 5671 5679 5685 5691 5696 5701 5705 5710 5713 5717 5719 5720 5720 5720 5718 5717 5718 5720 5723 5726 5730 5733 5735 5738 5741 5743 5745 5747 5749 5751 5754
5587 5587 5588 5589 5591 5594 5598 5604 5612 5622 5633 5644 5655 5664 5671 5678 5683 5689 5695 5700 5705 5709 5712 5714 5714 5714 5713 5713 5714 5716 5718 5720 5723 5725 5728 5731 5734 5736 5739 5740 5742 5744 5747
5572 5574 5575 5577 5579 5580 5582 5586 5591 5600 5612 5625 5637 5648 5656 5664 5671 5677 5684 5690 5696 5701 5705 5708 5709 5709 5708 5708 5709 5711 5712 5714 5716 5718 5721 5723 5726 5729 5732 5734 5736 5738 5741
5556 5559 5562 5564 5567 5570 5571 5573 5577 5582 5592 5605 5619 5631 5642 5651 5659 5666 5673 5681 5687 5693 5697 5701 5702 5703 5703 5703 5705 5706 5708 5709 5710 5712 5714 5715 5718 5722 5725 5728 5731 5734 5737
5540 5543 5547 5550 5555 5559 5562 5564 5567 5570 5577 5588 5601 5615 5628 5638 5647 5655 5663 5671 5678 5684 5689 5693 5696 5697 5698 5698 5699 5701 5703 5704 5704 5705 5707 5709 5711 5714 5718 5721 5725 5729 5733